Location: Darmstadt
(49.8706°N, 8.6494°E)
Time: 07:00:54
(UTC+01:00)

Cosmos 1825 - Pass Details

Date: 31 October 2020
Orbit: 501 x 508 km, 82.5° (Epoch: 03 December)

Event Time Altitude Azimuth Distance (km) Brightness Sun altitude
Rises 17:32:31 0° 5° (N) 2,627 5.6 -5.2°
Reaches altitude 10° 17:35:27 10° 29° (NNE) 1,734 4.5 -5.7°
Maximum altitude 17:37:40 15° 65° (ENE) 1,448 3.8 -6.0°
Drops below altitude 10° 17:39:52 10° 101° (E) 1,723 4.3 -6.4°
Sets 17:42:46 0° 126° (SE) 2,600 5.4 -6.8°
